Погода в Петровке

Россия / Республика Крым     45°29′47″N   34°17′00″E
темп.,
°C
ветер,
м/с
пор.,
м/с
влажн.,
%
обл.,
%
осадки,
мм/ч
давл.,
гПа
погр.,
м
16 мая, пн
пн1600:00+13зюз596913 0.0 1017229
03:00+11зюз48815 0.0 1018127
06:00+10зюз468325 0.0 1018116
09:00+18з46595 0.0 1018857
12:00+21сз67383 0.1 10182176
15:00+22сз56342 0.1 10182345
18:00+21зсз45435 0.0 10171936
21:00+13зюз34685 0.0 101850
17 мая, вт
вт1700:00+13юз367199 0.0 1018136
03:00+13зюз3667100 0.0 1017135
06:00+13зюз367697 0.0 1017136
09:00+18з4562100 0.0 1017782
12:00+21з574599 0.2 10162366
15:00+20зюз675769 0.8 1015991
18:00+19зюз6864100 0.9 1015749
21:00+13юз4785100 0.9 1015137
18 мая, ср
ср1800:00+13зюз3785100 0.0 1013154
03:00+13зюз4993100 0.8 1012321
06:00+13зюз3699100 7.5 1011331
09:00+13зсз3597100 18.1 1011357
12:00+12с5888100 3.7 1012688
15:00+14с6864100 4.8 10131468
18:00+15ссз7951100 0.0 1014877
21:00+10ссз51075100 0.9 1018467
19 мая, чт
чт1900:00+7сз4108745 0.2 1021265
03:00+7сз499534 0.4 1022228
06:00+8сз48947 0.1 1024291
09:00+13сз567425 0.1 1025858
12:00+16сз665395 0.1 10261834
15:00+15сз5657100 0.2 10261216
18:00+17сз455220 0.0 10251624
21:00+11з487885 0.0 1026133
20 мая, пт
пт2000:00+9юз5108081 0.0 1026198
03:00+9зюз5118620 0.0 1025224
06:00+10юз5118929 0.0 1025248
09:00+17зюз7863100 0.0 1024827
12:00+21зюз674688 0.0 10231957
15:00+21зюз784868 0.0 10221881
18:00+18юз796036 0.0 1021862
21:00+13юз61289100 0.0 1020346